EW7347 Weather Reports


Display with metric or nautical units.
time (UTC)temp
F
wind
direction
speed
MPH
gust
MPH
rain 1hr
in
rain 24hr
in
rain mn
in
humidity
%
barometer
mb
20260505183525 57 259 0.0 0.0 0.00 0.00 0.00 60 1011.4
20260505183023 57 331 0.0 0.0 0.00 0.00 0.00 60 1011.3
20260505182524 57 34 0.0 0.0 0.00 0.00 0.00 58 1011.4
20260505182026 57 269 0.0 0.0 0.00 0.00 0.00 57 1011.3
20260505180845 58 11 0.0 0.0 0.00 0.00 0.00 56 1011.4
20260505180355 58 319 0.0 3.0 0.00 0.00 0.00 56 1011.3
20260505175857 58 297 0.0 4.0 0.00 0.00 0.00 57 1011.3
20260505175351 58 267 0.0 1.0 0.00 0.00 0.00 57 1011.3
20260505174842 58 288 0.0 2.0 0.00 0.00 0.00 58 1011.4
20260505174331 58 308 0.0 0.0 0.00 0.00 0.00 57 1011.4
20260505173840 58 74 0.0 0.0 0.00 0.00 0.00 57 1011.4
20260505173322 58 303 0.0 0.0 0.00 0.00 0.00 56 1011.4
20260505172809 58 46 0.0 1.0 0.00 0.00 0.00 56 1011.4
20260505172256 58 280 0.0 3.0 0.00 0.00 0.00 56 1011.5
20260505171740 58 35 0.0 0.0 0.00 0.00 0.00 58 1011.5
20260505171221 59 315 0.0 0.0 0.00 0.00 0.00 56 1011.6
20260505170707 59 231 0.0 1.0 0.00 0.00 0.00 56 1011.6
20260505170151 59 33 0.0 2.0 0.00 0.00 0.00 54 1011.6
20260505165024 60 293 0.0 6.0 0.00 0.00 0.00 54 1011.5
20260505164511 61 346 0.0 0.0 0.00 0.00 0.00 53 1011.4
20260505164010 62 251 0.0 5.0 0.00 0.00 0.00 52 1011.4
20260505163502 62 286 0.0 1.0 0.00 0.00 0.00 53 1011.4
20260505163002 61 304 0.0 0.0 0.00 0.00 0.00 55 1011.3
20260505162452 61 42 0.0 6.0 0.00 0.00 0.00 55 1011.3
20260505161935 60 311 0.0 0.0 0.00 0.00 0.00 55 1011.3
20260505161443 60 329 0.0 4.0 0.00 0.00 0.00 56 1011.4
20260505160930 60 294 0.0 4.0 0.00 0.00 0.00 57 1011.4
20260505160437 60 5 0.0 8.0 0.00 0.00 0.00 57 1011.4
20260505152856 60 54 0.0 7.0 0.00 0.00 0.00 57 1011.5
20260505152404 60 11 0.0 0.0 0.00 0.00 0.00 57 1011.6
20260505151848 60 307 0.0 0.0 0.00 0.00 0.00 58 1011.5
20260505151333 59 45 0.0 0.0 0.00 0.00 0.00 57 1011.6
20260505150227 59 321 0.0 0.0 0.00 0.00 0.00 58 1011.7
20260505140650 59 342 0.0 1.0 0.00 0.00 0.00 59 1011.9
20260505140142 59 288 0.0 0.0 0.00 0.00 0.00 60 1011.9
20260505124944 60 269 0.0 3.0 0.00 0.00 0.00 58 1011.8
20260505124440 60 342 0.0 1.0 0.00 0.00 0.00 58 1011.8
20260505123928 60 247 0.0 6.0 0.00 0.00 0.00 59 1011.8
20260505123412 60 355 0.0 0.0 0.00 0.00 0.00 59 1011.8
20260505122855 60 313 0.0 0.0 0.00 0.00 0.00 60 1011.8
20260505122405 61 302 0.0 3.0 0.00 0.00 0.00 58 1011.8
20260505121904 61 277 0.0 3.0 0.00 0.00 0.00 58 1011.8
20260505121359 61 281 0.0 4.0 0.00 0.00 0.00 58 1011.8
20260505120856 61 298 0.0 0.0 0.00 0.00 0.00 59 1011.8
20260505120401 60 208 0.0 3.0 0.00 0.00 0.00 59 1011.9
20260505113949 60 24 0.0 0.0 0.00 0.00 0.00 59 1011.9
20260505112805 60 309 0.0 0.0 0.00 0.00 0.00 58 1012.0
20260505112254 60 271 0.0 0.0 0.00 0.00 0.00 57 1012.0
20260505111743 61 11 0.0 0.0 0.00 0.00 0.00 58 1012.0
20260505111233 61 87 0.0 7.0 0.00 0.00 0.00 57 1012.0
20260505110727 60 29 0.0 0.0 0.00 0.00 0.00 59 1012.0
20260505102111 60 306 0.0 5.0 0.00 0.00 0.00 62 1012.2
20260505101616 59 215 0.0 1.0 0.00 0.00 0.00 63 1012.4
20260505101117 59 306 0.0 5.0 0.00 0.00 0.00 62 1012.3
20260505100612 59 336 0.0 3.0 0.00 0.00 0.00 63 1012.3
20260505100055 59 269 0.0 7.0 0.00 0.00 0.00 64 1012.4
20260505095542 59 305 0.0 5.0 0.00 0.00 0.00 64 1012.3
20260505095045 58 305 0.0 3.0 0.00 0.00 0.00 67 1012.4
20260505094529 57 46 0.0 1.0 0.00 0.00 0.00 67 1012.4
20260505094032 57 306 0.0 7.0 0.00 0.00 0.00 67 1012.4
20260505093518 57 71 0.0 7.0 0.00 0.00 0.00 69 1012.5
20260505093023 56 188 0.0 6.0 0.00 0.00 0.00 68 1012.5
20260505092521 56 296 0.0 6.0 0.00 0.00 0.00 69 1012.6
20260505092001 56 346 0.0 1.0 0.00 0.00 0.00 70 1012.6
20260505091444 55 5 0.0 3.0 0.00 0.00 0.00 69 1012.7
20260505090946 55 290 0.0 1.0 0.00 0.00 0.00 70 1012.7
20260505090454 55 342 0.0 0.0 0.00 0.00 0.00 70 1012.7
20260505085940 55 299 0.0 7.0 0.00 0.00 0.00 71 1012.7
20260505085442 55 321 0.0 0.0 0.00 0.00 0.00 71 1012.7
20260505084932 55 298 0.0 0.0 0.00 0.00 0.00 71 1012.8
20260505084419 55 257 0.0 0.0 0.00 0.00 0.00 72 1012.8
20260505083905 55 273 0.0 0.0 0.00 0.00 0.00 72 1012.8
20260505083405 55 126 0.0 0.0 0.00 0.00 0.00 72 1012.8
20260505082914 55 24 0.0 0.0 0.00 0.00 0.00 71 1012.8
20260505082356 56 295 0.0 0.0 0.00 0.00 0.00 69 1012.8
20260505081901 56 9 0.0 0.0 0.00 0.00 0.00 71 1012.9
20260505080741 56 268 0.0 0.0 0.00 0.00 0.00 72 1013.0
20260505080240 56 325 0.0 0.0 0.00 0.00 0.00 72 1012.8
20260505075722 55 302 0.0 1.0 0.00 0.00 0.00 73 1012.7
20260505075206 54 267 0.0 0.0 0.00 0.00 0.00 77 1012.8
20260505074712 54 5 0.0 3.0 0.00 0.00 0.00 74 1012.8
20260505074203 54 265 0.0 1.0 0.00 0.00 0.00 77 1012.8
20260505073045 53 334 0.0 5.0 0.00 0.00 0.00 80 1012.9
20260505072555 52 243 0.0 4.0 0.00 0.00 0.00 81 1013.0
20260505072100 51 273 0.0 4.0 0.00 0.00 0.00 83 1013.0
20260505070938 49 272 0.0 0.0 0.00 0.00 0.00 84 1013.0
20260505070423 49 304 0.0 2.0 0.00 0.00 0.00 84 1013.0
20260505065910 49 255 0.0 1.0 0.00 0.00 0.00 86 1013.0
20260505065405 49 333 0.0 0.0 0.00 0.00 0.00 87 1013.0
20260505064851 48 267 0.0 0.0 0.00 0.00 0.00 88 1013.1
20260505064342 48 321 0.0 0.0 0.00 0.00 0.00 88 1013.2
20260505063824 48 324 0.0 0.0 0.00 0.00 0.00 88 1013.2
20260505062709 47 323 0.0 2.0 0.00 0.00 0.00 89 1013.2
20260505062209 47 266 0.0 0.0 0.00 0.00 0.00 89 1013.3
20260505061653 46 342 0.0 0.0 0.00 0.00 0.00 90 1013.3
20260505060538 46 342 0.0 0.0 0.00 0.00 0.00 90 1013.3
20260505060025 46 344 0.0 0.0 0.00 0.00 0.00 90 1013.3
20260505055526 45 340 0.0 0.0 0.00 0.00 0.00 91 1013.3
20260505054340 45 284 0.0 0.0 0.00 0.00 0.00 91 1013.2
20260505053838 45 284 0.0 0.0 0.00 0.00 0.00 91 1013.3
20260505053326 44 284 0.0 0.0 0.00 0.00 0.00 91 1013.3
20260505052809 44 284 0.0 0.0 0.00 0.00 0.00 91 1013.2
20260505051702 44 284 0.0 0.0 0.00 0.00 0.00 90 1013.0
20260505051147 44 284 0.0 0.0 0.00 0.00 0.00 90 1013.0
20260505050648 44 284 0.0 0.0 0.00 0.00 0.00 90 1013.0
20260505050131 44 284 0.0 0.0 0.00 0.00 0.00 90 1012.9
20260505041644 45 267 0.0 0.0 0.00 0.00 0.00 90 1012.9
20260505041151 45 265 0.0 0.0 0.00 0.00 0.00 91 1012.8
20260505040655 46 264 0.0 0.0 0.00 0.00 0.00 91 1012.8
20260505040202 46 301 0.0 0.0 0.00 0.00 0.00 91 1012.8
20260505035700 46 302 0.0 0.0 0.00 0.00 0.00 91 1012.7
20260505035202 46 57 0.0 0.0 0.00 0.00 0.00 91 1012.7
20260505034704 46 57 0.0 0.0 0.00 0.00 0.00 91 1012.7
20260505033529 46 57 0.0 0.0 0.00 0.00 0.00 91 1012.7
20260505032359 47 57 0.0 0.0 0.00 0.00 0.00 91 1013.0
20260505031842 47 57 0.0 0.0 0.00 0.00 0.00 91 1012.9
20260505030726 47 57 0.0 0.0 0.00 0.00 0.00 90 1012.9
20260505030224 47 57 0.0 0.0 0.00 0.00 0.00 90 1012.9
20260505025706 47 57 0.0 0.0 0.00 0.00 0.00 89 1013.0
20260505025151 48 57 0.0 0.0 0.00 0.00 0.00 89 1012.9
20260505024634 48 57 0.0 0.0 0.00 0.00 0.00 89 1012.9
20260505024131 48 57 0.0 0.0 0.00 0.00 0.00 89 1013.0
20260505022939 49 57 0.0 0.0 0.00 0.00 0.00 90 1013.0
20260505022449 49 57 0.0 0.0 0.00 0.00 0.00 90 1012.9
20260505021304 49 57 0.0 0.0 0.00 0.00 0.00 91 1012.9
20260505020807 49 57 0.0 0.0 0.00 0.00 0.00 91 1012.9
20260505020251 49 57 0.0 0.0 0.00 0.00 0.00 92 1012.9
20260505015734 49 57 0.0 0.0 0.00 0.00 0.00 92 1012.9
20260505015239 49 57 0.0 0.0 0.00 0.00 0.00 92 1013.0
20260505014725 49 57 0.0 0.0 0.00 0.00 0.00 92 1013.1
20260505014225 49 57 0.0 0.0 0.00 0.00 0.00 92 1013.2
20260505013713 49 57 0.0 0.0 0.00 0.00 0.00 92 1013.3
20260505013219 49 57 0.0 0.0 0.00 0.00 0.00 93 1013.4
20260505012719 48 57 0.0 0.0 0.00 0.00 0.00 92 1013.4
20260505012202 48 57 0.0 0.0 0.00 0.00 0.00 92 1013.4
20260505011700 48 57 0.0 0.0 0.00 0.00 0.00 92 1013.4
20260505011155 48 57 0.0 0.0 0.00 0.00 0.00 93 1013.4
20260505010649 48 57 0.0 0.0 0.00 0.00 0.00 93 1013.4
20260505010137 48 57 0.0 0.0 0.00 0.00 0.00 93 1013.5
20260505005646 48 57 0.0 0.0 0.00 0.00 0.00 93 1013.5
20260505005135 48 57 0.0 0.0 0.00 0.00 0.00 92 1013.6
20260505004627 48 57 0.0 0.0 0.00 0.00 0.00 92 1013.7
20260505002826 47 57 0.0 0.0 0.00 0.00 0.00 92 1013.7
20260505002320 47 57 0.0 0.0 0.00 0.00 0.00 92 1013.7
20260505001809 47 57 0.0 0.0 0.00 0.00 0.00 91 1013.8
20260505001311 47 57 0.0 0.0 0.00 0.00 0.00 90 1013.9
20260505000802 47 57 0.0 0.0 0.00 0.00 0.00 90 1013.9
20260504235625 47 57 0.0 0.0 0.00 0.00 0.00 90 1013.9
20260504234503 48 57 0.0 0.0 0.00 0.00 0.00 91 1014.0
20260504233957 48 57 0.0 0.0 0.00 0.00 0.00 91 1014.0
20260504233507 48 57 0.0 0.0 0.00 0.00 0.00 91 1014.0
20260504232951 48 57 0.0 0.0 0.00 0.00 0.00 91 1014.0
20260504232443 48 57 0.0 0.0 0.00 0.00 0.00 92 1014.1
20260504231951 48 57 0.0 0.0 0.00 0.00 0.00 92 1014.1
20260504231447 48 57 0.0 0.0 0.00 0.00 0.00 92 1014.1
20260504230947 48 57 0.0 0.0 0.00 0.00 0.00 92 1014.1
20260504230437 47 57 0.0 0.0 0.00 0.00 0.00 91 1014.1
20260504225943 47 57 0.0 0.0 0.00 0.00 0.00 90 1014.2
20260504225424 48 57 0.0 0.0 0.00 0.00 0.00 89 1014.1
20260504224913 48 57 0.0 0.0 0.00 0.00 0.00 89 1014.1
20260504224412 48 57 0.0 0.0 0.00 0.00 0.00 88 1014.1
20260504223900 48 57 0.0 0.0 0.00 0.00 0.00 88 1014.0
20260504222731 49 57 0.0 0.0 0.00 0.00 0.00 87 1014.0
20260504222220 49 57 0.0 0.0 0.00 0.00 0.00 87 1014.0
20260504221703 49 57 0.0 0.0 0.00 0.00 0.00 87 1014.0
20260504215918 50 57 0.0 0.0 0.00 0.00 0.00 86 1014.2
20260504215408 50 57 0.0 0.0 0.00 0.00 0.00 86 1014.2
20260504214251 51 57 0.0 0.0 0.00 0.00 0.00 87 1014.2
20260504213753 50 57 0.0 0.0 0.00 0.00 0.00 87 1014.2
20260504213259 50 57 0.0 0.0 0.00 0.00 0.00 87 1014.3
20260504212110 50 57 0.0 0.0 0.00 0.00 0.00 86 1014.3
20260504211602 51 57 0.0 0.0 0.00 0.00 0.00 86 1014.4
20260504211054 51 57 0.0 0.0 0.00 0.00 0.00 86 1014.3
20260504210545 51 57 0.0 0.0 0.00 0.00 0.00 86 1014.3
20260504210027 51 57 0.0 0.0 0.00 0.00 0.00 86 1014.4
20260504205507 51 57 0.0 0.0 0.00 0.00 0.00 85 1014.3
20260504205009 51 57 0.0 0.0 0.00 0.00 0.00 85 1014.3
20260504204518 51 57 0.0 0.0 0.00 0.00 0.00 84 1014.4
20260504204024 51 57 0.0 0.0 0.00 0.00 0.00 83 1014.4
20260504203522 52 57 0.0 0.0 0.00 0.00 0.00 83 1014.4
20260504203014 52 57 0.0 0.0 0.00 0.00 0.00 82 1014.4
20260504202517 52 57 0.0 0.0 0.00 0.00 0.00 82 1014.3
20260504201957 52 57 0.0 0.0 0.00 0.00 0.00 82 1014.3
20260504200816 53 57 0.0 0.0 0.00 0.00 0.00 82 1014.2
20260504200318 53 0 0.0 0.0 0.00 0.00 0.00 82 1014.3
20260504195805 53 0 0.0 0.0 0.00 0.00 0.00 81 1014.2
20260504194647 53 355 0.0 0.0 0.00 0.00 0.00 80 1014.0
20260504194137 53 39 0.0 0.0 0.00 0.00 0.00 80 1013.9
20260504193619 54 74 0.0 0.0 0.00 0.00 0.00 79 1013.9
20260504192506 54 66 0.0 0.0 0.00 0.00 0.00 78 1013.9
20260504190733 55 27 0.0 0.0 0.00 0.00 0.00 76 1013.9
20260504190227 55 84 0.0 1.0 0.00 0.00 0.00 76 1013.9
20260504185102 55 329 0.0 0.0 0.00 0.00 0.00 76 1013.9
20260504184555 55 92 0.0 1.0 0.00 0.00 0.00 75 1013.8
20260504184059 55 240 0.0 1.0 0.00 0.00 0.00 75 1013.7